Preview of NWS' New Version of Forecast
This preview is not operational and should not be used for support decisions.

Regional Weather Roundup (RWR)

Issued by Cleveland, OH (CLE)

                            
548 
ASUS41 KCLE 212312
RWRCLE
OHIO REGIONAL WEATHER ROUNDUP
NATIONAL WEATHER SERVICE WILMINGTON, OH
700 PM EDT THU JUN 21 2018

NOTE: "FAIR" INDICATES FEW OR NO CLOUDS BELOW 12,000 FEET WITH NO
SIGNIFICANT WEATHER AND/OR OBSTRUCTIONS TO VISIBILITY.

OHZ001>008-015>018-024>027-034-035-043-044-220000-
   NORTHWEST OHIO
  
CITY           SKY/WX    TMP DP  RH WIND       PRES   REMARKS
DEFIANCE       LGT RAIN  70  61  73 E9        29.80R                  
FINDLAY        LGT RAIN  73  65  75 NE10      29.78S                  
TOLEDO EXPRESS FAIR      73  57  57 E13       29.80S                  
TOLEDO EXEC    FAIR      72  60  66 NE13G23   29.82R                  
LIMA           LGT RAIN  68  67  96 NE7       29.78F                  
$$
 
OHZ009>014-019>023-028>033-038-089-220000-
   NORTHEAST OHIO
  
CITY           SKY/WX    TMP DP  RH WIND       PRES   REMARKS
CLE-HOPKINS    CLOUDY    72  61  68 NE13      29.83R                  
CLE-LAKEFRONT  FAIR      67  61  81 NE15      29.80R                  
CUY CO. ARPT   PTSUNNY   73  63  68 NE14      29.83S                  
LORAIN-ELYRIA  FAIR      70  54  56 NE17      29.82S                  
ASHTABULA      FAIR      69  61  75 NE8       29.85S                  
AKRON-CANTON   CLOUDY    77  58  51 E7        29.81S                  
WOOSTER        FAIR      76  57  51 E9        29.81S                  
MANSFIELD      FAIR      75  60  59 E7        29.80S                  
YOUNGSTOWN     CLOUDY    75  61  61 E5        29.82S                  
$$
 
OHZ042-051>053-060>062-070>072-077>081-220000-
  SOUTHWEST OHIO
  
CITY           SKY/WX    TMP DP  RH WIND       PRES   REMARKS
CINC-COVINGTON PTSUNNY   76  69  79 N5        29.72F                  
CINC-LUNKEN    PTSUNNY   77  73  87 NW9       29.72S                  
HAMILTON       CLOUDY    76  73  91 NE5       29.73S                  
DAYTON         LGT RAIN  70  69  97 E8        29.76S FOG              
WRIGHT-PAT AFB CLOUDY    71  70  95 NE8       29.75S                  
DAYTON GENERAL CLOUDY    74  69  85 E8        29.73F                  
WILMINGTON     LGT RAIN  71  71 100 E7        29.74F                  
$$

OHZ036-037-039>041-045>050-054>059-063>069-073>076-082>088-220000-
  CENTRAL AND SOUTHEAST OHIO
  
CITY           SKY/WX    TMP DP  RH WIND       PRES   REMARKS
COLUMBUS       HVY RAIN  70  67  90 E13       29.77R VSB 1            
OSU AIRPORT    HVY RAIN  68  68 100 E3        29.78R FOG              
BOLTON FIELD   RAIN      70  70 100 E8        29.77F                  
RICKENBACK AFB LGT RAIN  69  69 100 E9        29.76S                  
NEWARK         LGT RAIN  71  69  93 E5        29.77S                  
MARION         CLOUDY    72  64  76 E7        29.79S                  
LANCASTER      LGT RAIN  71  71 100 E5        29.77S                  
ZANESVILLE     HVY RAIN  71  68  90 E7        29.79S FOG              
NEW PHILLY     FAIR      75  64  68 E6        29.80S                  
$$